Regional Weather Roundup
Issued by NWS

Home | Current Version | Previous Version | Text Only | Print | Product List | Glossary Off
Versions: 1 2 3 4 5 6 7 8 9 10 11 12 13 14 15 16 17 18 19 20 21 22 23 24 25 26 27 28 29 30 31 32 33 34 35 36 37 38 39 40 41 42 43 44 45 46 47 48 49 50

000
ASUS45 KBOU 020810
RWRCO

WEATHER ROUNDUP FOR COLORADO
NATIONAL WEATHER SERVICE PUEBLO CO
200 AM MDT SUN AUG 02 2015

NOTE: "FAIR" INDICATES FEW OR NO CLOUDS BELOW 12000 FEET WITH NO
SIGNIFICANT WEATHER AND/OR OBSTRUCTIONS TO VISIBILITY.

COZ001>005-013-030-031-020900-
...NORTHWEST COLORADO...

CITY           SKY/WX    TMP DP  RH WIND       PRES   REMARKS
CRAIG          CLEAR     54  43  66 CALM      30.17F
HAYDEN         CLEAR     57  39  51 E8        30.20R
MEEKER         PTCLDY    59  46  62 CALM      30.20F
MOUNT WERNER   NOT AVBL
STEAMBOAT SPGS FAIR      54  43  65 CALM      30.23S
WALDEN         FAIR      50  37  62 SE6       30.30F
$$

COZ006>008-011-020900-
...WEST CENTRAL VALLEYS...

CITY           SKY/WX    TMP DP  RH WIND       PRES   REMARKS
GRAND JUNCTION PTCLDY    69  51  52 CALM      30.09S
MONTROSE       CLOUDY    66  54  65 SE8       30.19F
EAGLE          MOCLDY    61  45  55 E8        30.23F
RIFLE          MOCLDY    69  50  50 CALM      30.14F
DELTA          NOT AVBL
NUCLA          NOT AVBL
$$

COZ017>023-064>068-020900-
...SOUTHWEST COLORADO...

CITY           SKY/WX    TMP DP  RH WIND       PRES   REMARKS
DURANGO        MOCLDY    60  55  83 CALM      30.25F
CORTEZ         MOCLDY    64  59  83 E5        30.20F
PAGOSA SPRINGS CLOUDY    58  56  92 CALM      30.33F
TELLURIDE      LGT RAIN  54  52  93 CALM      30.43F
WOLF CREEK PAS NOT AVBL
$$

COZ009-010-012-014-032>034-037-058>063-020900-
...CENTRAL COLORADO...

CITY           SKY/WX    TMP DP  RH WIND       PRES   REMARKS
ASPEN          CLOUDY    59  46  62 SW5       30.30F
BUENA VISTA    LGT RAIN  57  49  75 CALM      30.35F
COPPER MTN     CLOUDY    55  34  44 W6        30.63F
BERTHOUD PASS  FAIR      46  36  66 SE10      30.67F
COTTONWOOD PAS CLOUDY    59  43  55 E3        30.47F
GUNNISON       CLOUDY    55  52  88 N3        30.37F
KREMMLING      PTCLDY    54  36  50 CALM      30.29S
LEADVILLE      CLOUDY    51  42  71 E3        30.46F
MONARCH PASS   CLOUDY    45  39  81 SW10      30.72F
SALIDA         NOT AVBL
NIWOT RIDGE    NOT AVBL
SUNLIGHT       CLOUDY    57  41  54 CALM      30.55F
WILKERSON PASS CLOUDY    50  39  66 SW7       30.59F
$$

COZ069>075-020900-
...SAN LUIS VALLEY/SANGRE DE CRISTO MOUNTAINS...

CITY           SKY/WX    TMP DP  RH WIND       PRES   REMARKS
ALAMOSA        CLOUDY    57  51  80 E6        30.31F
LA VETA PASS   CLOUDY    48  37  66 MISG      30.49F
SAGUACHE       CLOUDY    59  46  63 N6        30.34F
$$

COZ035-036-038>040-020900-
...NORTHERN COLORADO FRONT RANGE...

CITY           SKY/WX    TMP DP  RH WIND       PRES   REMARKS
DENVER INTL AP CLOUDY    73  46  38 S10       30.08F
DMNS CITY PARK NOT AVBL
AURORA         MOCLDY    72  47  41 S10       30.11F
FRONT RANGE AP FAIR      66  46  48 S8        30.11S
ERIE MUNI ARPT FAIR      68  55  62 NW7       30.07F
BOULDER MUN AP FAIR      68  52  56 N3        30.09S
CENTENNIAL     CLOUDY    70  47  43 SW6       30.13F
BROOMFIELD     CLOUDY    70  54  56 NW10      30.11S
LOVELAND       PTCLDY    64  54  68 N8        30.09S
LONGMONT       FAIR      70  55  57 N10       30.09S
$$

COZ041-046-047-076>085-087-088-020900-
...PIKES PEAK/PALMER DIVIDE AND SOUTHERN FOOTHILLS...

CITY           SKY/WX    TMP DP  RH WIND       PRES   REMARKS
COLO. SPRINGS  CLOUDY    64  52  64 NE3       30.19F
A. F. ACADEMY  CLOUDY    59  48  67 N3        30.20F
ELLICOTT       FAIR     N/A N/A N/A SW8       30.18F
FALCON         FAIR      63  49  60 S6        30.24F
FORT CARSON    MOCLDY    61  55  81 S6        30.15F
LIMON          PTCLDY    58  51  78 CALM      30.12F
MONUMENT HILL  NOT AVBL
TRINIDAD       MOCLDY    64  54  69 W14       30.15F
$$

COZ042>045-048>051-090-091-020900-
...NORTHEAST COLORADO...

CITY           SKY/WX    TMP DP  RH WIND       PRES   REMARKS
GREELEY ARPT   MOCLDY    66  54  63 E5        30.06F
AKRON          CLOUDY    64  57  78 CALM      30.06F
BURLINGTON     PTCLDY    66  62  87 S5        30.03F
WRAY           FAIR      70  61  72 W6        30.01S
STERLING       FAIR      64  55  72 CALM      30.02F
HOLYOKE        NOT AVBL
FORT MORGAN    FAIR      68  52  55 W6        30.05F
$$

COZ086-089-092>099-020900-
...SOUTHEAST COLORADO...

CITY           SKY/WX    TMP DP  RH WIND       PRES   REMARKS
PUEBLO         MOCLDY    70  59  68 NW8       30.07F
LA JUNTA       CLOUDY    72  56  57 NW9       30.02F
LAMAR          MOCLDY    71  64  78 NW8       29.98F
SPRINGFIELD      N/A     67  58  72 W3        30.05F
$$



USA.gov is the U.S. government's official web portal to all federal, state and local government web resources and services.